User: anonymous   Login
Location: Kalberh�ni
(46.4610°N, 7.2453°E)
Time: 22:32:20
(UTC+00:00)
Language:

Uosat 12 SS-18 rocket - Orbit

View from above orbital plane
View from above orbital plane
View from above satellite
View from above satellite

Ground track
Ground track

The orbit data is extracted from the following two-line orbital elements,

1 25695U 99021C   21266.86720500 -.00000060  00000-0  18442-4 0  9993
2 25695  64.5566 324.7827 0554426 354.7296   4.8061 13.72023043122915
Epoch (UTC): 23 September 2021 20:48:46
Eccentricity: 0.0554426
inclination: 64.5566°
perigee height: 583 km
apogee height: 1401 km
right ascension of ascending node: 324.7827°
argument of perigee: 354.7296°
revolutions per day: 13.72023043
mean anomaly at epoch: 4.8061°
orbit number at epoch: 12291

The dashed part of the orbit path shows where the satellite is in the earth's shadow,  

DLR